Location: Sihaung
(22.8641°N, 94.0549°E)
Time: 02:52:16
(UTC+00:00)

DMSP B5D1-3 - Pass Details

Date: 03 March 2021
Orbit: 767 x 780 km, 98.5° (Epoch: 13 April)

Event Time Altitude Azimuth Distance (km) Brightness Sun altitude
Rises 12:12:25 0° 15° (NNE) 3,260 7.6 -6.4°
Reaches altitude 10° 12:14:45 10° 17° (NNE) 2,331 6.8 -6.9°
Maximum altitude 12:19:53 72° 102° (ESE) 819 4.5 -8.1°
Drops below altitude 10° 12:25:00 10° 186° (S) 2,322 7.1 -9.3°
Sets 12:27:18 0° 188° (S) 3,247 7.9 -9.8°
